Weather History for Marianna, FL

Change the Weather History Date:

Tuesday, January 1, 2013

  Actual Average Record
Temperature  
Mean Temperature 63 °F 50 °F  
Max Temperature 77 °F 61 °F 77 °F (2006)
Min Temperature 48 °F 39 °F 24 °F (2001)
Degree Days  
Heating Degree Days 2    
Month to date heating degree days 2  
Since 1 July heating degree days 493  
Cooling Degree Days 0    
Month to date cooling degree days 0  
Year to date cooling degree days 0  
Growing Degree Days 12 (Base 50)    
Moisture  
Dew Point 57 °F    
Average Humidity 75    
Maximum Humidity 93    
Minimum Humidity 57    
Precipitation  
Precipitation 0.00 in 0.18 in 1.20 in (2006)
Month to date precipitation 0.00 0.18  
Year to date precipitation 0.00 0.18  
Sea Level Pressure  
Sea Level Pressure 30.03 in    
Wind  
Wind Speed 8 mph (SSW)    
Max Wind Speed 21 mph    
Max Gust Speed 28 mph    
Visibility 10 miles    
Events      
T = Trace of Precipitation, MM = Missing Value Source: NWS Daily Summary

Daily Weather History Graph

Daily Weather History Graph

Search for Another Location

Airport:

Trip Planner

Search our weather history database for the weather conditions in past years. The results will help you decide how hot, cold, wet, or windy it might be!

Date:

Astronomy

Jan. 01, 2013 Rise Set
Actual Time 6:38 AM CST 4:50 PM CST
Civil Twilight 6:12 AM CST 5:16 PM CST
Nautical Twilight 5:42 AM CST 5:47 PM CST
Astronomical Twilight 5:12 AM CST 6:16 PM CST
Moon 9:01 PM CST (1/1) 9:07 AM CST (1/1)
Length of Visible Light 11h 04m
Length of Day
10h 11m
Waning Gibbous, 83% of the Moon is Illuminated
Jan 1
Waning Gibbous
Jan 4
Last Quarter
Jan 11
New
Jan 18
First Quarter
Jan 26
Full

Hourly Weather History & Observations

Time (CST) Temp. Dew Point Humidity Pressure Visibility Wind Dir Wind Speed Gust Speed Precip Events Conditions
12:53 AM 54.0 °F 48.9 °F 83% 30.13 in 10.0 mi Calm Calm - N/A   Clear
1:53 AM 53.1 °F 48.9 °F 86% 30.13 in 10.0 mi SSE 5.8 mph - N/A   Clear
2:53 AM 50.0 °F 48.0 °F 93% 30.12 in 10.0 mi Calm Calm - N/A   Clear
3:53 AM 51.1 °F 48.9 °F 92% 30.09 in 10.0 mi South 5.8 mph - N/A   Clear
4:53 AM 51.1 °F 48.0 °F 89% 30.08 in 10.0 mi Calm Calm - N/A   Clear
5:53 AM 54.0 °F 50.0 °F 86% 30.08 in 10.0 mi SSE 3.5 mph - N/A   Clear
7:53 AM 54.0 °F 52.0 °F 93% 30.08 in 10.0 mi South 3.5 mph - N/A   Clear
8:53 AM 61.0 °F 55.9 °F 83% 30.09 in 10.0 mi South 10.4 mph - N/A   Clear
9:53 AM 68.0 °F 59.0 °F 73% 30.08 in 10.0 mi South 13.8 mph - N/A   Clear
10:53 AM 73.9 °F 59.0 °F 59% 30.06 in 10.0 mi SSW 15.0 mph - N/A   Clear
11:53 AM 75.0 °F 59.0 °F 57% 30.03 in 10.0 mi SSW 13.8 mph 21.9 mph N/A   Mostly Cloudy
12:53 PM 75.9 °F 59.0 °F 56% 30.00 in 10.0 mi SSW 16.1 mph 23.0 mph N/A   Mostly Cloudy
1:53 PM 75.9 °F 59.0 °F 56% 29.98 in 10.0 mi SSW 13.8 mph - N/A   Clear
2:53 PM 73.9 °F 57.9 °F 57% 29.98 in 10.0 mi SSW 15.0 mph 20.7 mph N/A   Mostly Cloudy
3:53 PM 72.0 °F 59.0 °F 64% 29.97 in 10.0 mi SSW 11.5 mph - N/A   Overcast
4:53 PM 71.1 °F 57.9 °F 63% 29.98 in 10.0 mi SSW 9.2 mph - N/A   Overcast
5:53 PM 69.1 °F 59.0 °F 70% 29.98 in 10.0 mi SSW 9.2 mph - N/A   Overcast
6:53 PM 66.0 °F 59.0 °F 78% 29.98 in 10.0 mi South 9.2 mph - N/A   Partly Cloudy
7:53 PM 64.9 °F 60.1 °F 84% 29.98 in 10.0 mi SSW 6.9 mph - N/A   Scattered Clouds
8:05 PM 64.4 °F 60.8 °F 88% 29.99 in 10.0 mi South 6.9 mph - N/A   Mostly Cloudy
8:46 PM 66.2 °F 62.6 °F 88% 29.99 in 10.0 mi South 6.9 mph - N/A   Overcast
8:53 PM 64.9 °F 62.1 °F 90% 29.98 in 10.0 mi South 6.9 mph - N/A   Overcast
9:53 PM 66.0 °F 63.0 °F 90% 29.98 in 10.0 mi South 8.1 mph - N/A   Overcast
10:26 PM 66.2 °F 62.6 °F 88% 29.97 in 10.0 mi South 9.2 mph - N/A   Mostly Cloudy
10:53 PM 66.0 °F 64.0 °F 93% 29.97 in 10.0 mi SSW 5.8 mph - N/A   Overcast
11:53 PM 68.0 °F 64.9 °F 90% 29.96 in 10.0 mi SSW 9.2 mph - N/A   Overcast